TimeMST,TemperatureF,Dew PointF,Humidity,Sea Level PressureIn,VisibilityMPH,Wind Direction,Wind SpeedMPH,Gust SpeedMPH,PrecipitationIn,Events,Conditions,WindDirDegrees,DateUTC
12:15 AM,69.8,30.2,23,30.13,10.0,ENE,12.7,-,N/A,,Clear,70,2012-11-24 07:15:00
12:35 AM,69.8,30.2,23,30.12,10.0,ENE,11.5,-,N/A,,Clear,70,2012-11-24 07:35:00
12:55 AM,69.8,30.2,23,30.12,10.0,ENE,15.0,-,N/A,,Clear,60,2012-11-24 07:55:00
1:15 AM,69.8,30.2,23,30.12,10.0,ENE,16.1,-,N/A,,Clear,60,2012-11-24 08:15:00
1:35 AM,68.0,28.4,23,30.12,10.0,ENE,13.8,-,N/A,,Clear,70,2012-11-24 08:35:00
1:55 AM,68.0,28.4,23,30.12,10.0,ENE,12.7,-,N/A,,Clear,70,2012-11-24 08:55:00
2:15 AM,66.2,28.4,24,30.12,10.0,ENE,12.7,-,N/A,,Clear,70,2012-11-24 09:15:00
2:35 AM,66.2,28.4,24,30.12,10.0,ENE,12.7,-,N/A,,Clear,70,2012-11-24 09:35:00
2:55 AM,66.2,28.4,24,30.12,10.0,ENE,11.5,-,N/A,,Clear,70,2012-11-24 09:55:00
3:15 AM,66.2,28.4,24,30.12,10.0,ENE,10.4,-,N/A,,Clear,70,2012-11-24 10:15:00
3:35 AM,64.4,28.4,26,30.11,10.0,ENE,9.2,-,N/A,,Clear,70,2012-11-24 10:35:00
3:55 AM,66.2,26.6,23,30.11,10.0,ENE,9.2,-,N/A,,Clear,70,2012-11-24 10:55:00
4:15 AM,64.4,26.6,24,30.11,10.0,ENE,9.2,-,N/A,,Clear,60,2012-11-24 11:15:00
4:35 AM,64.4,26.6,24,30.11,10.0,ENE,13.8,-,N/A,,Clear,60,2012-11-24 11:35:00
4:55 AM,64.4,26.6,24,30.11,10.0,ENE,15.0,-,N/A,,Clear,60,2012-11-24 11:55:00
5:15 AM,64.4,26.6,24,30.11,10.0,ENE,15.0,20.7,N/A,,Clear,60,2012-11-24 12:15:00
5:35 AM,64.4,24.8,22,30.11,10.0,ENE,16.1,24.2,N/A,,Clear,60,2012-11-24 12:35:00
5:55 AM,64.4,24.8,22,30.12,10.0,ENE,13.8,-,N/A,,Clear,60,2012-11-24 12:55:00
6:15 AM,64.4,24.8,22,30.12,10.0,ENE,16.1,-,N/A,,Clear,60,2012-11-24 13:15:00
6:35 AM,64.4,24.8,22,30.11,10.0,ENE,16.1,21.9,N/A,,Clear,70,2012-11-24 13:35:00
6:55 AM,64.4,24.8,22,30.12,10.0,ENE,15.0,-,N/A,,Clear,60,2012-11-24 13:55:00
7:15 AM,64.4,24.8,22,30.12,10.0,ENE,13.8,19.6,N/A,,Clear,60,2012-11-24 14:15:00
7:35 AM,64.4,24.8,22,30.13,10.0,ENE,18.4,23.0,N/A,,Clear,60,2012-11-24 14:35:00
7:55 AM,66.2,24.8,21,30.13,10.0,ENE,16.1,20.7,N/A,,Clear,60,2012-11-24 14:55:00
8:15 AM,66.2,24.8,21,30.13,10.0,ENE,20.7,24.2,N/A,,Clear,60,2012-11-24 15:15:00
8:35 AM,66.2,24.8,21,30.13,10.0,ENE,18.4,24.2,N/A,,Clear,60,2012-11-24 15:35:00
8:55 AM,68.0,24.8,20,30.13,10.0,ENE,17.3,-,N/A,,Clear,60,2012-11-24 15:55:00
9:15 AM,69.8,26.6,20,30.14,10.0,ENE,17.3,21.9,N/A,,Clear,60,2012-11-24 16:15:00
9:35 AM,69.8,26.6,20,30.13,10.0,ENE,17.3,-,N/A,,Clear,60,2012-11-24 16:35:00
9:55 AM,71.6,26.6,19,30.14,10.0,ENE,16.1,-,N/A,,Clear,70,2012-11-24 16:55:00
10:15 AM,73.4,26.6,18,30.13,10.0,ENE,16.1,-,N/A,,Clear,70,2012-11-24 17:15:00
10:35 AM,73.4,26.6,18,30.12,10.0,East,13.8,-,N/A,,Clear,80,2012-11-24 17:35:00
10:55 AM,75.2,28.4,18,30.12,10.0,ENE,13.8,-,N/A,,Clear,70,2012-11-24 17:55:00
11:15 AM,75.2,28.4,18,30.11,10.0,ENE,11.5,-,N/A,,Clear,70,2012-11-24 18:15:00
11:35 AM,77.0,28.4,17,30.09,10.0,ENE,10.4,-,N/A,,Clear,70,2012-11-24 18:35:00
11:55 AM,78.8,28.4,16,30.08,10.0,ENE,10.4,-,N/A,,Clear,70,2012-11-24 18:55:00
12:15 PM,78.8,28.4,16,30.07,10.0,ENE,9.2,-,N/A,,Clear,70,2012-11-24 19:15:00
12:35 PM,78.8,30.2,17,30.05,10.0,ENE,8.1,-,N/A,,Clear,60,2012-11-24 19:35:00
12:55 PM,78.8,30.2,17,30.04,10.0,ENE,8.1,-,N/A,,Clear,60,2012-11-24 19:55:00
1:15 PM,80.6,30.2,16,30.03,10.0,ENE,6.9,-,N/A,,Clear,60,2012-11-24 20:15:00
1:35 PM,80.6,30.2,16,30.02,10.0,Calm,Calm,-,N/A,,Clear,0,2012-11-24 20:35:00
1:55 PM,80.6,30.2,16,30.01,10.0,Calm,Calm,-,N/A,,Clear,0,2012-11-24 20:55:00
2:15 PM,82.4,30.2,15,30.00,10.0,Calm,Calm,-,N/A,,Clear,0,2012-11-24 21:15:00
2:35 PM,80.6,30.2,16,30.00,10.0,Calm,Calm,-,N/A,,Clear,0,2012-11-24 21:35:00
2:55 PM,82.4,30.2,15,29.99,10.0,Calm,Calm,-,N/A,,Clear,0,2012-11-24 21:55:00
3:15 PM,82.4,32.0,16,29.99,10.0,Calm,Calm,-,N/A,,Clear,0,2012-11-24 22:15:00
3:35 PM,82.4,32.0,16,29.98,10.0,Calm,Calm,-,N/A,,Clear,0,2012-11-24 22:35:00
3:55 PM,82.4,32.0,16,29.98,10.0,Calm,Calm,-,N/A,,Clear,0,2012-11-24 22:55:00
4:15 PM,82.4,32.0,16,29.98,10.0,Calm,Calm,-,N/A,,Clear,0,2012-11-24 23:15:00
4:35 PM,80.6,30.2,16,29.97,10.0,Calm,Calm,-,N/A,,Clear,0,2012-11-24 23:35:00
4:55 PM,80.6,30.2,16,29.97,10.0,Calm,Calm,-,N/A,,Clear,0,2012-11-24 23:55:00
5:15 PM,78.8,30.2,17,29.97,10.0,Calm,Calm,-,N/A,,Clear,0,2012-11-25 00:15:00
5:35 PM,75.2,30.2,19,29.96,10.0,Calm,Calm,-,N/A,,Clear,0,2012-11-25 00:35:00
5:55 PM,71.6,30.2,22,29.96,10.0,Calm,Calm,-,N/A,,Clear,0,2012-11-25 00:55:00
6:15 PM,71.6,30.2,22,29.96,10.0,Calm,Calm,-,N/A,,Clear,0,2012-11-25 01:15:00
6:35 PM,69.8,30.2,23,29.97,10.0,Calm,Calm,-,N/A,,Clear,0,2012-11-25 01:35:00
6:55 PM,68.0,30.2,24,29.96,10.0,Calm,Calm,-,N/A,,Clear,0,2012-11-25 01:55:00
7:15 PM,68.0,30.2,24,29.96,10.0,Calm,Calm,-,N/A,,Clear,0,2012-11-25 02:15:00
7:35 PM,66.2,30.2,26,29.96,10.0,Calm,Calm,-,N/A,,Clear,0,2012-11-25 02:35:00
7:55 PM,66.2,28.4,24,29.96,10.0,Calm,Calm,-,N/A,,Clear,0,2012-11-25 02:55:00
8:15 PM,66.2,30.2,26,29.96,10.0,Calm,Calm,-,N/A,,Clear,0,2012-11-25 03:15:00
8:35 PM,66.2,28.4,24,29.96,10.0,Calm,Calm,-,N/A,,Clear,0,2012-11-25 03:35:00
8:55 PM,62.6,28.4,27,29.96,10.0,Calm,Calm,-,N/A,,Clear,0,2012-11-25 03:55:00
9:15 PM,62.6,28.4,27,29.96,10.0,Calm,Calm,-,N/A,,Clear,0,2012-11-25 04:15:00
9:35 PM,64.4,28.4,26,29.97,10.0,Calm,Calm,-,N/A,,Clear,0,2012-11-25 04:35:00
9:55 PM,57.2,28.4,33,29.97,10.0,Calm,Calm,-,N/A,,Clear,0,2012-11-25 04:55:00
10:15 PM,57.2,28.4,33,29.97,10.0,Calm,Calm,-,N/A,,Clear,0,2012-11-25 05:15:00
10:35 PM,57.2,30.2,36,29.97,10.0,Calm,Calm,-,N/A,,Clear,0,2012-11-25 05:35:00
10:55 PM,57.2,30.2,36,29.97,10.0,Calm,Calm,-,N/A,,Clear,0,2012-11-25 05:55:00
11:15 PM,55.4,28.4,36,29.97,10.0,Calm,Calm,-,N/A,,Clear,0,2012-11-25 06:15:00
11:35 PM,55.4,30.2,38,29.96,10.0,Calm,Calm,-,N/A,,Clear,0,2012-11-25 06:35:00
11:55 PM,55.4,30.2,38,29.96,10.0,Calm,Calm,-,N/A,,Clear,0,2012-11-25 06:55:00